• In Hungary
  • List of Countries
  • For 7 days
  • Water Temperature
  • Satellite Maps
  • Weather Map
  • News
  • Weather Widgets
  • user-avatar
    Login

    Hourly Weather Burgas

    Today, 12 December, Tuesday

    Time Temperature Precipitation Wind Pressure Humidity
    00:00 +8°C° 0 mm 5 mps 762 mmHg 84%
    01:00 +7°C° 0 mm 5 mps 762 mmHg 84%
    02:00 +7°C° 0 mm 5 mps 761 mmHg 87%
    03:00 +7°C° 0 mm 5 mps 761 mmHg 86%
    04:00 +7°C° 0 mm 5 mps 762 mmHg 85%
    05:00 +7°C° 0 mm 5 mps 762 mmHg 84%
    06:00 +7°C° 0 mm 5 mps 762 mmHg 83%
    07:00 +6°C° 0 mm 5 mps 762 mmHg 82%
    08:00 +6°C° 0 mm 4 mps 761 mmHg 80%
    09:00 +8°C° 0 mm 5 mps 762 mmHg 73%
    10:00 +9°C° 0 mm 5 mps 762 mmHg 66%
    11:00 +12°C° 0 mm 5 mps 762 mmHg 59%
    12:00 +13°C° 0 mm 5 mps 762 mmHg 56%
    13:00 +14°C° 0 mm 5 mps 762 mmHg 54%
    14:00 +15°C° 0 mm 5 mps 761 mmHg 50%
    15:00 +13°C° 0 mm 5 mps 761 mmHg 55%
    16:00 +12°C° 0 mm 4 mps 761 mmHg 59%
    17:00 +11°C° 0 mm 4 mps 761 mmHg 63%
    18:00 +11°C° 0 mm 4 mps 761 mmHg 65%
    19:00 +10°C° 0 mm 3 mps 762 mmHg 67%
    20:00 +10°C° 0 mm 3 mps 762 mmHg 69%
    21:00 +10°C° 0 mm 3 mps 762 mmHg 71%
    22:00 +9°C° 0 mm 3 mps 762 mmHg 73%
    23:00 +9°C° 0 mm 3 mps 762 mmHg 75%

    Tomorrow, 13 December, Wednesday

    Time Temperature Precipitation Wind Pressure Humidity
    00:00 +9°C° 0 mm 3 mps 762 mmHg 77%
    01:00 +9°C° 0 mm 3 mps 762 mmHg 78%
    02:00 +9°C° 0 mm 3 mps 762 mmHg 79%
    03:00 +8°C° 0 mm 3 mps 762 mmHg 80%
    04:00 +8°C° 0 mm 3 mps 762 mmHg 81%
    05:00 +8°C° 0 mm 3 mps 762 mmHg 82%
    06:00 +8°C° 0 mm 3 mps 762 mmHg 83%
    07:00 +8°C° 0 mm 3 mps 762 mmHg 83%
    08:00 +8°C° 0 mm 3 mps 762 mmHg 84%
    09:00 +10°C° 0 mm 3 mps 762 mmHg 78%
    10:00 +11°C° 0 mm 3 mps 762 mmHg 72%
    11:00 +13°C° 0 mm 3 mps 762 mmHg 66%
    12:00 +14°C° 0 mm 3 mps 762 mmHg 64%
    13:00 +14°C° 0 mm 3 mps 761 mmHg 62%
    14:00 +16°C° 0 mm 3 mps 761 mmHg 59%
    15:00 +14°C° 0 mm 3 mps 761 mmHg 65%
    16:00 +14°C° 0 mm 2 mps 761 mmHg 71%
    17:00 +13°C° 0 mm 2 mps 761 mmHg 76%
    18:00 +12°C° 0 mm 2 mps 761 mmHg 78%
    19:00 +12°C° 0 mm 2 mps 760 mmHg 80%
    20:00 +12°C° 0 mm 2 mps 760 mmHg 82%
    21:00 +12°C° 0 mm 2 mps 760 mmHg 83%
    22:00 +10°C° 0 mm 2 mps 759 mmHg 84%
    23:00 +10°C° 0 mm 2 mps 759 mmHg 85%

    Day after tomorrow, 14 December, Thursday

    Time Temperature Precipitation Wind Pressure Humidity
    00:00 +10°C° 0 mm 3 mps 759 mmHg 85%
    01:00 +10°C° 0 mm 3 mps 759 mmHg 86%
    02:00 +10°C° 0 mm 3 mps 758 mmHg 86%
    03:00 +10°C° 0 mm 3 mps 758 mmHg 86%
    04:00 +10°C° 0 mm 3 mps 758 mmHg 87%
    05:00 +10°C° 0 mm 3 mps 757 mmHg 87%
    06:00 +10°C° 0 mm 3 mps 757 mmHg 87%
    07:00 +10°C° 0 mm 3 mps 758 mmHg 88%
    08:00 +10°C° 0 mm 2 mps 758 mmHg 88%
    09:00 +12°C° 0.1 mm 2 mps 758 mmHg 85%
    10:00 +13°C° 0.1 mm 2 mps 758 mmHg 82%
    11:00 +14°C° 0.1 mm 2 mps 758 mmHg 78%
    12:00 +14°C° 0 mm 2 mps 758 mmHg 74%
    13:00 +15°C° 0 mm 2 mps 757 mmHg 70%
    14:00 +16°C° 0 mm 2 mps 757 mmHg 65%
    15:00 +15°C° 0 mm 1 mps 757 mmHg 69%
    16:00 +14°C° 0 mm 1 mps 758 mmHg 72%
    17:00 +12°C° 0 mm 1 mps 758 mmHg 76%
    18:00 +12°C° 0 mm 1 mps 758 mmHg 78%
    19:00 +12°C° 0 mm 1 mps 758 mmHg 80%
    20:00 +10°C° 0 mm 0 mps 758 mmHg 82%
    21:00 +11°C° 0 mm 1 mps 759 mmHg 83%
    22:00 +11°C° 0 mm 1 mps 759 mmHg 84%
    23:00 +10°C° 0 mm 1 mps 759 mmHg 85%

    15 December, Friday

    Time Temperature Precipitation Wind Pressure Humidity
    00:00 +10°C° 0 mm 1 mps 759 mmHg 86%
    01:00 +10°C° 0 mm 1 mps 759 mmHg 87%
    02:00 +10°C° 0 mm 1 mps 759 mmHg 87%
    03:00 +9°C° 0 mm 1 mps 759 mmHg 88%
    04:00 +9°C° 0 mm 1 mps 759 mmHg 88%
    05:00 +8°C° 0 mm 2 mps 759 mmHg 88%
    06:00 +8°C° 0 mm 2 mps 759 mmHg 89%
    07:00 +8°C° 0 mm 2 mps 759 mmHg 89%
    08:00 +8°C° 0 mm 2 mps 759 mmHg 89%
    09:00 +9°C° 0 mm 2 mps 759 mmHg 83%
    10:00 +12°C° 0 mm 2 mps 759 mmHg 78%
    11:00 +12°C° 0 mm 3 mps 759 mmHg 72%
    12:00 +13°C° 0 mm 3 mps 758 mmHg 68%
    13:00 +14°C° 0 mm 4 mps 758 mmHg 65%
    14:00 +15°C° 0 mm 5 mps 757 mmHg 61%
    15:00 +14°C° 0 mm 5 mps 757 mmHg 64%
    16:00 +13°C° 0 mm 5 mps 757 mmHg 67%
    17:00 +13°C° 0 mm 5 mps 756 mmHg 69%
    18:00 +13°C° 0 mm 6 mps 756 mmHg 71%
    19:00 +11°C° 0 mm 6 mps 756 mmHg 73%
    20:00 +11°C° 0 mm 7 mps 756 mmHg 74%
    21:00 +11°C° 0 mm 7 mps 756 mmHg 78%
    22:00 +11°C° 0 mm 7 mps 756 mmHg 81%
    23:00 +11°C° 0 mm 7 mps 756 mmHg 84%

    16 December, Saturday

    Time Temperature Precipitation Wind Pressure Humidity
    00:00 +11°C° 0 mm 8 mps 755 mmHg 85%
    01:00 +11°C° 0 mm 8 mps 755 mmHg 85%
    02:00 +11°C° 0 mm 8 mps 755 mmHg 85%
    03:00 +11°C° 0 mm 8 mps 755 mmHg 86%
    04:00 +11°C° 0 mm 8 mps 755 mmHg 86%
    05:00 +11°C° 0 mm 8 mps 755 mmHg 87%
    06:00 +11°C° 0 mm 8 mps 755 mmHg 87%
    07:00 +11°C° 0 mm 8 mps 755 mmHg 88%
    08:00 +11°C° 0 mm 7 mps 755 mmHg 88%
    09:00 +12°C° 0 mm 8 mps 755 mmHg 84%
    10:00 +13°C° 0 mm 8 mps 756 mmHg 79%
    11:00 +15°C° 0 mm 8 mps 756 mmHg 75%
    12:00 +16°C° 0 mm 8 mps 756 mmHg 71%
    13:00 +16°C° 0 mm 7 mps 755 mmHg 67%
    14:00 +17°C° 0 mm 7 mps 755 mmHg 63%
    15:00 +16°C° 0 mm 6 mps 756 mmHg 66%
    16:00 +15°C° 0 mm 5 mps 756 mmHg 69%
    17:00 +13°C° 0 mm 4 mps 756 mmHg 73%
    18:00 +13°C° 0 mm 3 mps 757 mmHg 75%
    19:00 +13°C° 0 mm 3 mps 757 mmHg 76%
    20:00 +13°C° 0 mm 3 mps 757 mmHg 78%
    21:00 +12°C° 0.1 mm 3 mps 757 mmHg 79%
    22:00 +12°C° 0.1 mm 3 mps 757 mmHg 81%
    23:00 +13°C° 0.1 mm 2 mps 757 mmHg 82%

    17 December, Sunday

    Time Temperature Precipitation Wind Pressure Humidity
    00:00 +12°C° 1.4 mm 3 mps 757 mmHg 84%
    01:00 +12°C° 1.4 mm 3 mps 757 mmHg 85%
    02:00 +12°C° 1.4 mm 3 mps 757 mmHg 87%
    03:00 +11°C° 2.3 mm 3 mps 756 mmHg 88%
    04:00 +11°C° 2.3 mm 3 mps 756 mmHg 89%
    05:00 +11°C° 2.3 mm 4 mps 755 mmHg 90%
    06:00 +11°C° 2.1 mm 4 mps 755 mmHg 90%
    07:00 +11°C° 2.1 mm 4 mps 755 mmHg 91%
    08:00 +11°C° 2.1 mm 4 mps 755 mmHg 91%
    09:00 +9°C° 1.9 mm 5 mps 755 mmHg 90%
    10:00 +9°C° 1.9 mm 6 mps 756 mmHg 89%
    11:00 +9°C° 1.9 mm 6 mps 756 mmHg 88%
    12:00 +8°C° 1.3 mm 6 mps 756 mmHg 87%
    13:00 +8°C° 1.3 mm 5 mps 756 mmHg 87%
    14:00 +8°C° 1.3 mm 5 mps 757 mmHg 86%
    15:00 +7°C° 1.2 mm 5 mps 757 mmHg 86%
    16:00 +7°C° 1.2 mm 5 mps 758 mmHg 86%
    17:00 +6°C° 1.2 mm 5 mps 758 mmHg 86%
    18:00 +5°C° 1.1 mm 6 mps 759 mmHg 87%
    19:00 +5°C° 1.1 mm 6 mps 759 mmHg 87%
    20:00 +4°C° 1.1 mm 6 mps 760 mmHg 87%
    21:00 +4°C° 1.1 mm 6 mps 760 mmHg 87%
    22:00 +4°C° 1.1 mm 6 mps 760 mmHg 87%
    23:00 +4°C° 1.1 mm 6 mps 761 mmHg 87%
    Show more